Regional Weather Roundup
Issued by NWS Albany, NY

Home | Current Version | Previous Version | Text Only | Print | Product List | Glossary On
Versions: 1 2 3 4 5 6 7 8 9 10 11 12 13 14 15 16 17 18 19 20 21 22 23 24 25 26 27 28 29 30 31 32 33 34 35 36 37 38 39 40 41 42 43 44 45 46 47 48 49 50
592
ASUS41 KALY 220210
RWRALY

NEW YORK STATE HOURLY WEATHER ROUNDUP
NATIONAL WEATHER SERVICE ALBANY NY
1000 PM EDT SAT OCT 21 2017

NOTE: "FAIR" INDICATES FEW OR NO CLOUDS BELOW 12,000 FEET WITH NO
SIGNIFICANT WEATHER AND/OR NO OBSTRUCTIONS TO VISIBILITY.

NYZ032-033-038>043-046>054-057>066-NYZ062>081-082-084-220300-
EAST


CITY           SKY/WX    TMP DP  RH WIND       PRES   REMARKS
ALBANY         CLOUDY    51  46  83 CALM      30.32R
GLENS FALLS    CLOUDY    47  43  86 CALM      30.31R
POUGHKEEPSIE   CLEAR     50  45  83 CALM      30.33R
NEWBURGH       MOCLDY    59  43  55 W6        30.34S
MONTGOMERY     CLEAR     51  45  79 CALM      30.34R
WHITE PLAINS   CLEAR     54  45  71 NW5       30.35S
ISLIP          PTCLDY    58  56  93 SW3       30.35S
NEW YORK CITY  CLOUDY    67  47  48 S7        30.35R
CENTRAL PARK   PTCLDY    67  44  43 VRB5      30.38R
$$

NYZ005>009-017-018-044>046-055-056-220300-
CENTRAL


CITY           SKY/WX    TMP DP  RH WIND       PRES   REMARKS
FULTON         CLEAR     51  46  83 SE3       30.28R
SYRACUSE       MOCLDY    50  47  89 CALM      30.28S
ROME           CLEAR     49  45  86 CALM      30.32S
ELMIRA         PTCLDY    46  44  93 CALM      30.32S
BINGHAMTON     CLOUDY    61  37  41 S3        30.34S
MONTICELLO     CLOUDY    51  42  71 CALM      30.39R
$$

NYZ026>034-041>043-087-220300-
NORTH


CITY           SKY/WX    TMP DP  RH WIND       PRES   REMARKS
WATERTOWN      PTCLDY    44  44 100 E5        30.27S
FORT DRUM      NOT AVBL
OGDENSBURG     FAIR      52  48  86 CALM      30.27S
MASSENA        CLOUDY    50  47  89 SW5       30.28S
SARANAC LAKE   CLOUDY    42  41  96 CALM      30.32R
PLATTSBURGH    CLEAR     50  47  89 CALM      30.28R
$$

NYZ001>004-010>016-019>021-085-220300-
WEST


CITY           SKY/WX    TMP DP  RH WIND       PRES   REMARKS
NIAGARA FALLS  PTCLDY    57  47  69 SE5       30.23F
BUFFALO        CLOUDY    58  48  69 S5        30.25S
DUNKIRK        PTCLDY    53  49  86 CALM      30.25S
JAMESTOWN      MOCLDY    59  44  57 S7        30.30S
WELLSVILLE     CLOUDY    63  37  38 S7        30.35R
ROCHESTER      MOCLDY    53  51  93 SW5       30.26S
PENN YAN       CLOUDY    62  42  47 S8        30.30R
$$

             KEY
       WCI = WIND CHILL INDEX
       VSB = VISIBILITY
       HX  = HEAT INDEX
$$




USA.gov is the U.S. government's official web portal to all federal, state and local government web resources and services.